星链-33849 (STARLINK-33849)

导读

STARLINK-33849是美国SpaceX公司星链(Starlink)星座的成员卫星,于2025年4月25日由美国发射入轨。星链项目旨在构建全球覆盖的低轨卫星互联网通信系统,该卫星承担为偏远地区、移动场景提供高速网络接入服务的任务,依托近地轨道部署优势,可降低通信延迟,扩展全球网络覆盖范围,是SpaceX推进星链星座组网的重要组成部分。

Basic Information
目录编号:
63654
目录名称:
STARLINK-33849
国际标识:
2025-083W
轨道中心:
EARTH
卫星名称:
星链-33849
卫星全名:
星链-33849 (STARLINK-33849)
卫星状态:
在轨 (已飞行504 天)
发射日期:
2025-04-25 UTC
国别 :
美国 (US)
星等 :
--
This satellite is enrolled in the Space Conjunction Data Service (SCDS) and the current flight risk assessment level is: No High Risk
Orbit Information
数据来源 国际轨道数据
星历时间: 2026-09-09T11:45:12+0800
2天前
查看轨道信息
半长轴: 6861.191km
偏心率: 0.0000348
轨道倾角: 42.999°
近地点辐角 28.541°
升交点赤经 49.262°
平近点角 331.547°
近地点: 482.815km
远地点: 483.293km
周期: 94.267分钟
每日圈数: 15.275784
Detailed Information
固有亮度:
5
最大亮度:
2.5
卫星平台:
Starlink V1.0
覆盖范围:
全球
运营商:
太空探索技术公司
运营商所在国:
美国
制造商(研发单位):
太空探索技术公司
制造商所在国:
美国
使用方式:
暂无
Satellite Introduction
Starlink 计划是 SpaceX 推出的全球卫星互联网项目,通过发射低轨道卫星,为全球尤其是偏远地区提供高速、低延迟的互联网服务。自 2019 年起,Starlink 已部署数千颗卫星,旨在缩小全球数字鸿沟,推动互联网普及。该项目还为军事、航空等行业提供通信支持,带来广泛经济效益。
2D Orbit Map
3D Orbit Map
Orbit Altitude Analysis Chart
Orbit Inclination Analysis Chart
Orbit Comprehensive Analysis Chart
View Comprehensive Chart
Conjunction Data List
Event ID Objects TCA Miss Dist (km) Collision Risk Probability Collision Risk Index (CRI) Action
CDM_260912-232805-773206-365421
2026-09-12T
23:28:15+0000
0.773 km
远距离
4.879646E-5 中风险 0.69
CDM_260911-074704-431606-365425
OBJECT G (44316)
2026-09-11T
07:47:15+0000
0.813 km
远距离
3.311858E-5 中风险 0.65
CDM_260911-105305-870106-365423
2026-09-11T
10:53:10+0000
1.031 km
极远距离
1.637843E-5 中风险 0.59
CDM_260913-104506-365406-783521
2026-09-13T
10:45:10+0000
1.064 km
极远距离
1.402065E-5 中风险 0.58
CDM_260912-190806-365406-425021
2026-09-12T
19:08:27+0000
1.249 km
极远距离
5.93574E-6 低风险 0.5
CDM_260913-091106-365406-783521
2026-09-13T
09:11:01+0000
1.379 km
极远距离
5.769969E-6 低风险 0.5
CDM_260912-173406-365406-425021
2026-09-12T
17:34:18+0000
1.499 km
极远距离
3.273711E-6 低风险 0.45
CDM_260912-204206-365406-425021
2026-09-12T
20:42:36+0000
1.643 km
极远距离
2.483761E-6 低风险 0.43
CDM_260913-073606-365406-783521
2026-09-13T
07:36:52+0000
1.848 km
极远距离
2.362657E-6 低风险 0.42
CDM_260913-052805-723206-365421
2026-09-13T
05:28:39+0000
1.438 km
极远距离
2.297395E-6 低风险 0.42
Miss Distance Evolution Trend with All Objects
Collision Probability Evolution Trend with All Objects